Wind_Speed
2 2 2 2 3 4 5 6 6 6 5 4 3 3 3 4 5 5 6 6 6 6 7 7 7 7 8 9 10 11 11 11 10 9 8 8 7 6 5 4 4 4 3 3 3 2 2 1 1
4 4 4 4 4 5 8 7 8 7 7 5 5 5 4 4 5 5 5 5 5 6 7 7 7 8 9 10 10 11 12 11 11 10 10 9 9 8 7 6 6 6 5 4 4 3 3 2 2
7 7 7 7 7 7 9 9 9 9 8 8 7 7 7 6 6 5 5 5 6 6 7 7 8 9 10 11 11 11 12 12 12 11 11 11 11 10 9 8 8 8 7 6 6 5 4 4 4
10 10 9 9 10 11 12 12 11 11 10 10 10 10 9 8 7 6 6 6 6 7 7 7 8 9 10 11 11 12 12 12 12 12 13 13 12 12 11 11 10 10 9 9 8 7 7 6 6
13 12 12 12 14 15 15 15 14 13 12 12 12 13 12 10 9 8 7 7 7 8 8 8 9 10 11 12 12 13 13 13 14 14 14 14 14 14 14 14 13 12 12 11 10 10 9 9 8
15 14 13 13 17 18 19 18 17 15 14 14 14 14 13 11 11 10 9 8 8 9 9 10 11 12 13 13 14 14 15 15 15 16 16 16 16 17 17 16 15 15 14 13 13 12 12 12 11
17 17 17 17 20 21 21 19 17 15 15 14 14 14 14 12 12 11 11 10 10 10 11 12 13 14 15 16 16 17 17 18 18 18 19 19 19 19 19 18 18 18 17 16 15 15 15 15 14
19 19 19 20 22 23 23 20 19 16 15 13 13 14 14 14 13 12 12 11 12 13 14 15 16 18 18 19 19 20 20 21 21 21 22 22 22 21 21 20 20 20 19 18 17 17 17 17 17
20 20 20 22 24 25 24 23 21 19 17 15 14 14 15 14 14 13 13 14 15 16 17 18 19 21 21 21 22 22 23 23 24 24 25 25 25 24 24 23 23 22 21 20 19 19 19 19 19
22 21 22 24 24 25 25 25 24 21 20 18 17 16 16 15 16 16 16 16 17 18 19 20 21 23 24 24 25 26 26 27 27 28 28 29 29 28 27 26 25 24 23 22 21 20 20 20 20
24 23 23 24 25 25 26 26 25 24 22 21 20 19 18 18 18 19 19 20 20 21 22 23 24 25 26 27 29 29 30 30 31 32 33 33 33 32 31 30 28 27 26 25 23 22 21 21 20
25 24 24 24 25 25 26 27 27 26 26 25 23 23 22 21 21 21 22 22 22 23 24 25 26 28 29 30 31 32 33 34 35 35 35 36 35 36 35 33 32 30 28 27 26 23 22 22 21
26 25 25 25 25 26 26 27 28 28 27 27 26 25 25 24 24 24 24 24 25 26 27 28 29 30 31 32 33 33 35 36 37 38 38 38 38 38 38 37 35 33 31 29 26 24 24 23 22
26 25 24 24 24 24 25 26 28 27 28 28 28 28 28 28 27 27 27 27 28 29 30 31 32 33 34 34 34 35 37 38 38 37 37 38 38 38 39 38 36 33 32 30 28 26 25 24 23
23 22 22 23 22 23 23 25 26 26 27 28 29 29 29 29 29 29 29 30 30 32 33 33 34 35 36 35 36 35 36 37 36 37 37 38 38 38 39 39 37 35 33 32 30 29 27 25 24
20 18 18 21 21 21 21 23 24 24 25 26 27 28 29 30 30 30 30 31 32 33 34 35 36 37 38 37 35 34 35 34 34 36 38 37 37 38 39 39 38 36 34 32 31 30 29 27 26
15 14 16 19 19 20 20 22 23 23 23 24 25 25 27 28 29 29 30 31 32 34 35 36 37 38 38 37 36 35 35 34 34 34 34 33 32 33 36 37 37 37 35 32 31 29 30 29 27
12 12 14 17 18 18 20 21 22 22 22 23 22 22 23 25 26 28 29 31 33 35 37 37 39 40 39 39 38 37 36 36 35 32 29 28 28 30 32 33 33 35 35 32 31 30 30 29 28
12 11 12 15 16 17 18 20 20 21 21 21 21 22 22 23 25 27 30 32 34 37 38 39 40 40 40 40 39 37 36 35 33 31 29 26 26 28 27 29 30 31 32 31 31 30 30 30 29
9 8 10 13 13 14 16 17 19 19 19 20 20 21 23 25 27 29 32 33 35 36 38 38 38 38 38 37 36 36 35 34 33 31 29 26 26 27 27 28 29 30 29 29 31 31 30 29 29
6 7 9 11 12 12 12 13 15 16 17 19 20 22 24 26 28 29 32 32 33 35 35 36 36 36 36 36 36 36 36 34 32 31 29 27 26 27 27 28 29 29 29 29 30 31 31 31 31
6 8 7 8 8 10 9 10 14 13 15 17 18 19 21 23 26 29 30 31 32 33 34 34 35 35 36 37 37 37 36 35 34 33 32 30 30 29 29 29 29 30 30 31 31 31 30 30 31
6 6 6 7 7 8 9 8 15 13 14 16 18 20 21 23 25 27 29 30 31 32 33 34 35 36 37 38 38 39 38 38 38 37 36 34 34 34 33 33 33 32 33 32 32 32 31 31 32
5 5 6 7 7 8 10 8 15 14 16 18 19 20 21 23 26 28 29 31 32 34 35 37 38 39 39 40 41 41 41 41 41 40 40 39 38 37 38 38 37 37 37 36 35 35 35 35 35
6 5 6 8 8 10 12 11 15 15 17 19 20 22 23 25 27 29 31 32 34 36 37 38 40 41 42 43 44 44 44 44 44 43 43 43 42 42 42 42 42 42 42 41 40 40 39 39 39
6 5 6 7 8 11 13 13 15 16 18 19 21 23 25 27 29 31 32 33 35 37 39 40 41 43 44 45 45 46 45 45 46 46 46 46 46 46 46 46 46 47 47 47 47 46 44 43 43
6 6 7 8 9 9 12 15 15 17 19 21 22 24 26 28 30 32 33 35 37 39 41 42 43 44 45 45 46 46 46 46 47 47 47 48 48 49 49 50 50 52 53 53 54 53 52 50 49
6 7 8 8 9 9 13 17 17 18 20 22 24 26 28 30 32 33 35 37 39 41 42 43 44 45 45 46 47 47 47 48 48 48 49 49 50 50 51 53 53 54 56 57 58 59 59 57 56
7 8 8 9 10 11 13 18 18 20 21 23 26 28 30 31 33 35 38 40 42 43 44 44 45 46 47 47 47 48 48 49 49 49 49 50 51 51 52 54 55 56 58 60 61 62 63 63 62
8 10 10 11 13 13 15 20 19 21 23 26 28 30 32 33 36 38 40 42 44 45 45 46 47 47 47 48 48 48 49 49 50 50 51 52 53 53 54 54 56 58 60 61 63 64 65 66 66
Wind_Direction
311 309 310 322 330 333 327 328 337 331 324 322 322 322 317 310 307 302 299 305 306 307 307 308 312 315 314 311 309 309 308 309 310 313 314 316 319 322 326 331 334 338 342 346 349 351 357 5 26
286 282 282 290 302 319 301 306 321 328 328 327 326 326 322 317 312 307 308 312 315 315 311 312 315 316 314 310 305 304 304 304 306 308 308 310 312 312 311 312 314 314 314 312 311 308 306 302 295
277 273 269 273 281 274 280 292 306 315 318 320 319 317 316 311 307 307 308 312 316 315 313 314 316 313 309 306 302 302 302 301 302 303 304 305 307 306 305 303 302 301 300 297 293 289 288 286 281
279 274 271 270 274 272 279 288 296 303 309 313 314 312 309 308 308 306 303 305 309 309 312 315 315 310 305 302 300 300 300 299 299 299 300 300 301 301 300 300 297 295 293 289 285 281 279 278 275
280 276 273 273 270 271 275 280 287 294 299 305 308 305 304 304 301 299 296 297 298 302 307 311 312 309 304 300 299 298 297 297 296 296 296 297 297 296 296 296 294 291 288 285 280 276 274 272 270
279 278 271 267 269 273 274 280 285 288 293 296 299 297 294 295 294 291 289 292 293 297 301 303 305 305 302 300 298 298 297 297 296 296 295 295 295 293 293 292 290 287 284 281 278 274 271 269 266
274 273 268 264 267 273 278 283 284 286 289 291 293 289 284 285 287 285 286 287 288 293 294 295 297 299 298 297 296 298 298 298 297 296 295 295 294 292 291 289 287 285 282 277 274 271 269 267 265
272 271 267 264 265 268 276 280 283 285 287 288 287 284 281 282 280 279 281 284 287 291 292 292 293 295 295 294 294 296 298 298 296 295 294 294 293 292 290 288 286 284 280 276 271 269 267 266 264
270 267 264 259 260 265 272 276 279 283 285 287 283 280 282 283 279 281 282 283 287 290 290 291 292 293 293 291 291 292 293 293 292 291 291 291 290 289 288 285 284 281 278 275 271 268 266 266 264
270 267 263 262 262 263 266 270 273 277 280 280 280 282 284 284 283 284 284 285 286 287 288 290 291 292 291 289 288 289 289 289 288 287 288 288 287 285 284 283 281 279 276 273 269 267 264 264 262
270 268 265 264 262 261 261 263 267 269 270 273 276 280 283 284 285 285 285 285 287 288 288 289 289 289 289 288 287 286 287 288 288 287 286 286 285 283 281 280 279 277 274 271 267 263 261 260 259
270 267 265 263 263 261 259 260 262 263 266 271 276 278 281 282 284 283 286 288 290 289 288 287 286 287 288 288 288 287 285 285 286 285 284 282 282 281 278 277 276 274 272 270 265 261 258 257 257
269 268 266 264 264 263 262 260 261 262 266 270 273 275 276 277 279 281 284 286 287 288 287 288 289 288 288 287 286 285 285 286 284 283 282 280 278 277 275 275 273 270 267 267 262 260 257 254 254
270 269 268 266 266 266 264 263 263 264 266 267 270 272 274 275 277 278 279 281 282 283 285 286 289 291 290 289 288 286 285 285 283 284 283 281 277 275 272 271 269 265 264 263 257 257 255 253 252
270 269 269 267 267 267 266 265 265 266 266 266 268 269 271 272 272 272 275 278 279 281 283 285 289 292 292 292 293 290 289 289 286 283 282 282 278 275 271 268 267 262 262 262 258 256 253 251 250
271 271 268 269 269 268 267 267 269 268 268 268 268 269 269 269 269 270 272 275 277 279 281 285 289 291 291 294 292 292 293 293 291 288 284 280 276 274 269 265 263 260 261 258 256 254 252 251 249
272 267 264 270 270 269 266 267 272 271 270 270 270 271 270 268 268 268 270 272 275 278 281 285 289 291 292 293 291 290 293 296 295 294 288 281 275 272 267 261 259 257 256 254 254 251 250 249 248
259 262 265 266 270 270 271 273 274 274 273 272 273 273 270 268 267 268 271 274 277 281 284 286 288 289 292 292 291 291 292 295 295 293 290 284 277 271 265 260 257 253 251 250 251 249 248 247 245
266 266 267 271 273 273 273 274 276 276 275 274 273 272 270 269 270 271 275 278 280 283 285 285 287 289 290 290 291 291 292 294 292 292 291 286 279 270 266 259 258 251 248 248 246 248 248 247 243
277 279 279 281 280 279 279 277 275 275 275 276 275 274 274 274 275 277 280 282 283 286 288 289 289 289 290 290 292 293 294 295 292 291 292 287 278 269 265 260 254 250 248 247 247 247 250 245 242
288 278 279 286 289 287 288 289 283 279 278 279 280 280 279 279 279 282 286 287 287 288 290 291 291 291 292 292 292 293 293 294 294 292 291 288 282 274 268 262 257 254 251 251 249 248 249 245 243
287 283 283 291 300 297 297 294 292 289 288 289 289 289 288 286 287 288 290 292 292 292 293 294 294 293 292 293 293 292 291 290 290 290 288 286 282 276 270 265 261 255 252 249 249 249 247 244 242
279 290 297 300 299 297 301 292 290 294 294 296 296 295 294 294 294 294 295 296 296 296 295 296 295 294 293 293 292 291 290 289 288 286 284 281 277 271 267 263 260 258 254 250 249 248 245 244 243
303 304 314 318 317 298 294 293 287 295 298 301 301 300 299 300 299 297 298 299 299 298 298 297 296 295 294 293 292 291 289 287 285 283 280 277 274 269 265 263 260 257 255 251 250 248 246 245 243
301 313 317 314 310 287 294 293 287 296 299 301 302 302 301 302 302 301 301 301 300 300 299 298 297 296 295 293 291 290 288 286 284 281 278 275 272 268 264 261 258 256 254 251 250 249 247 246 245
304 300 285 285 291 294 300 296 298 300 302 303 305 305 304 303 304 305 305 304 303 302 301 300 298 296 294 293 291 290 288 285 282 280 277 274 271 267 263 260 257 255 253 251 250 249 248 247 246
300 297 296 298 301 304 297 304 303 305 307 308 309 309 308 308 309 309 308 307 306 305 303 301 300 298 296 294 292 290 288 285 282 279 277 274 270 267 263 260 257 255 252 250 249 248 247 247 246
308 309 310 311 307 307 305 310 315 313 313 312 313 313 313 313 312 311 311 309 308 306 305 303 301 299 297 295 294 292 290 287 284 281 278 275 271 268 264 261 258 255 253 251 249 247 246 246 246
321 321 320 318 318 315 308 304 315 315 315 316 316 316 316 316 315 314 313 312 310 309 307 306 304 303 301 299 297 295 292 290 286 283 279 276 273 270 266 262 259 256 254 251 250 248 246 245 244
327 328 329 326 323 320 316 311 320 318 319 319 319 319 319 318 317 316 315 314 313 312 311 310 309 307 304 301 299 297 294 291 288 285 282 278 275 272 268 265 261 258 255 252 250 248 246 245 244
Height
5932 5932 5932 5933 5933 5934 5933 5932 5931 5931 5930 5929 5928 5927 5926 5926 5926 5927 5924 5922 5922 5921 5920 5920 5920 5919 5918 5917 5917 5916 5915 5914 5913 5912 5911 5910 5909 5909 5908 5907 5907 5906 5905 5905 5904 5903 5903 5902 5902
5932 5932 5933 5933 5933 5935 5933 5932 5931 5930 5929 5928 5927 5926 5926 5925 5924 5923 5922 5921 5920 5920 5919 5919 5918 5918 5917 5916 5916 5915 5914 5913 5912 5911 5910 5909 5909 5908 5907 5907 5906 5906 5905 5904 5904 5903 5903 5902 5902
5932 5932 5933 5933 5932 5933 5932 5931 5930 5929 5928 5927 5926 5925 5925 5924 5922 5921 5920 5919 5919 5918 5917 5917 5916 5916 5916 5915 5914 5913 5912 5911 5910 5910 5909 5908 5907 5907 5906 5905 5905 5905 5904 5903 5903 5902 5902 5901 5901
5930 5931 5932 5932 5932 5931 5930 5929 5929 5928 5927 5926 5925 5924 5923 5922 5921 5920 5918 5918 5917 5916 5915 5915 5914 5914 5913 5913 5912 5911 5911 5910 5909 5908 5907 5906 5906 5905 5904 5904 5903 5903 5902 5902 5901 5901 5900 5900 5900
5928 5929 5930 5930 5930 5929 5928 5928 5927 5927 5926 5925 5924 5923 5921 5920 5919 5918 5917 5916 5915 5914 5913 5913 5912 5912 5911 5911 5910 5909 5908 5908 5907 5906 5905 5904 5903 5903 5902 5902 5901 5901 5900 5900 5899 5899 5898 5898 5898
5927 5927 5929 5929 5927 5926 5926 5926 5926 5925 5924 5923 5922 5921 5920 5918 5917 5916 5915 5914 5913 5912 5911 5911 5910 5910 5909 5908 5908 5907 5906 5905 5904 5903 5902 5902 5901 5900 5900 5899 5898 5898 5897 5897 5897 5896 5896 5896 5895
5925 5925 5925 5925 5924 5923 5923 5923 5923 5923 5922 5922 5920 5919 5918 5916 5915 5914 5913 5912 5911 5910 5909 5908 5908 5907 5906 5906 5905 5904 5903 5902 5901 5901 5900 5899 5898 5897 5897 5896 5895 5895 5894 5894 5893 5893 5893 5892 5892
5920 5922 5921 5922 5921 5920 5920 5919 5920 5920 5920 5919 5918 5917 5916 5915 5913 5912 5911 5910 5909 5908 5907 5906 5905 5904 5903 5903 5902 5901 5900 5899 5898 5897 5896 5895 5894 5894 5893 5892 5892 5891 5890 5890 5889 5889 5889 5888 5889
5916 5918 5918 5917 5917 5916 5916 5916 5916 5916 5916 5916 5915 5914 5913 5912 5911 5910 5908 5908 5907 5906 5905 5904 5903 5901 5900 5899 5898 5897 5896 5895 5894 5893 5892 5891 5890 5889 5888 5888 5887 5886 5886 5886 5885 5885 5885 5884 5884
5912 5913 5913 5912 5912 5912 5912 5912 5912 5913 5913 5912 5912 5911 5910 5909 5909 5907 5906 5905 5904 5903 5902 5901 5900 5898 5896 5895 5894 5893 5891 5890 5889 5887 5886 5885 5884 5883 5882 5882 5881 5881 5881 5880 5880 5880 5880 5879 5880
5907 5908 5907 5906 5906 5907 5907 5908 5908 5908 5908 5908 5908 5908 5907 5907 5906 5905 5903 5902 5901 5900 5899 5897 5896 5894 5892 5891 5889 5887 5886 5884 5883 5881 5880 5879 5878 5876 5875 5875 5875 5874 5874 5874 5874 5874 5874 5874 5875
5901 5902 5901 5901 5901 5901 5902 5902 5903 5903 5904 5903 5904 5904 5904 5903 5902 5901 5900 5899 5898 5896 5895 5893 5891 5890 5888 5886 5884 5882 5880 5878 5877 5875 5873 5872 5871 5870 5868 5868 5867 5867 5867 5868 5868 5868 5869 5869 5869
5895 5896 5895 5895 5895 5896 5896 5897 5897 5898 5898 5899 5899 5899 5899 5899 5898 5897 5896 5895 5893 5892 5890 5888 5887 5885 5883 5881 5879 5877 5874 5872 5869 5867 5866 5864 5863 5862 5861 5861 5860 5860 5860 5861 5862 5862 5863 5864 5864
5889 5889 5889 5890 5890 5891 5891 5892 5892 5893 5893 5894 5894 5894 5894 5894 5894 5893 5892 5890 5889 5887 5885 5883 5882 5880 5877 5874 5872 5869 5867 5865 5861 5859 5857 5855 5853 5853 5852 5852 5852 5853 5853 5853 5854 5856 5857 5857 5858
5883 5884 5884 5884 5885 5886 5886 5886 5886 5887 5888 5888 5888 5888 5888 5888 5888 5887 5886 5885 5883 5882 5880 5878 5876 5873 5871 5868 5865 5862 5859 5857 5853 5850 5847 5846 5844 5843 5843 5844 5844 5845 5845 5846 5847 5849 5850 5851 5852
5878 5880 5881 5879 5880 5881 5883 5882 5881 5881 5882 5882 5882 5882 5882 5882 5882 5881 5881 5879 5878 5876 5873 5871 5869 5867 5863 5860 5857 5855 5852 5849 5844 5840 5837 5835 5834 5834 5834 5834 5835 5837 5837 5839 5840 5842 5844 5845 5846
5876 5877 5877 5876 5876 5876 5877 5877 5877 5876 5877 5876 5876 5876 5876 5876 5876 5875 5874 5873 5872 5869 5867 5864 5862 5859 5856 5853 5849 5846 5843 5840 5835 5830 5828 5826 5824 5824 5824 5825 5826 5828 5830 5831 5833 5835 5837 5838 5840
5874 5874 5873 5873 5872 5872 5872 5872 5872 5871 5871 5871 5871 5870 5870 5870 5870 5869 5868 5867 5865 5863 5860 5857 5854 5851 5849 5845 5841 5837 5835 5832 5827 5823 5820 5818 5816 5815 5816 5816 5817 5819 5822 5824 5825 5828 5829 5831 5833
5869 5870 5870 5869 5868 5869 5868 5868 5867 5867 5867 5866 5866 5866 5865 5865 5864 5863 5862 5860 5858 5855 5852 5849 5846 5843 5840 5837 5833 5829 5826 5823 5820 5817 5813 5810 5808 5808 5808 5809 5810 5811 5814 5816 5818 5820 5822 5824 5826
5867 5868 5868 5866 5865 5865 5864 5864 5863 5862 5862 5862 5861 5861 5860 5859 5858 5856 5854 5852 5849 5846 5843 5840 5837 5834 5831 5828 5824 5821 5818 5815 5812 5809 5807 5804 5802 5801 5801 5803 5803 5805 5806 5808 5810 5812 5814 5816 5818
5865 5866 5866 5864 5863 5862 5861 5861 5859 5858 5858 5857 5856 5855 5854 5853 5851 5849 5847 5844 5841 5838 5835 5832 5828 5825 5822 5819 5816 5813 5810 5807 5805 5803 5801 5799 5797 5796 5795 5796 5797 5798 5799 5801 5803 5805 5807 5808 5811
5864 5863 5862 5861 5860 5861 5860 5861 5856 5854 5854 5853 5851 5850 5848 5847 5845 5842 5840 5837 5833 5830 5827 5824 5820 5817 5814 5810 5807 5804 5801 5799 5797 5795 5793 5792 5790 5789 5789 5789 5790 5790 5791 5793 5795 5797 5798 5800 5802
5861 5860 5860 5859 5858 5858 5857 5858 5855 5852 5850 5849 5847 5845 5843 5841 5838 5836 5833 5829 5826 5823 5819 5816 5812 5809 5805 5802 5798 5795 5792 5790 5788 5786 5784 5783 5782 5781 5780 5780 5781 5782 5783 5784 5786 5788 5790 5792 5794
5859 5859 5858 5857 5857 5857 5855 5855 5852 5849 5847 5845 5843 5840 5838 5836 5833 5829 5826 5823 5819 5815 5811 5807 5803 5800 5796 5792 5788 5785 5782 5779 5777 5775 5774 5772 5772 5771 5771 5771 5771 5772 5773 5775 5776 5778 5780 5782 5785
5858 5858 5859 5858 5857 5856 5852 5851 5849 5846 5844 5842 5839 5836 5834 5831 5827 5824 5820 5816 5812 5807 5803 5798 5794 5790 5785 5781 5777 5774 5771 5767 5765 5763 5761 5760 5759 5759 5759 5759 5760 5761 5762 5764 5766 5767 5770 5772 5775
5857 5857 5858 5857 5856 5853 5849 5847 5845 5842 5840 5838 5835 5832 5829 5825 5821 5817 5813 5808 5803 5798 5793 5788 5784 5779 5774 5770 5766 5762 5758 5755 5752 5749 5747 5746 5745 5745 5745 5745 5746 5748 5749 5751 5753 5755 5758 5760 5763
5855 5855 5854 5853 5852 5850 5848 5844 5841 5839 5836 5834 5830 5827 5823 5819 5815 5810 5805 5800 5795 5789 5784 5778 5773 5767 5762 5757 5752 5748 5745 5741 5737 5735 5733 5731 5729 5729 5729 5729 5730 5732 5734 5735 5738 5740 5743 5747 5750
5854 5853 5852 5851 5849 5849 5846 5842 5839 5835 5833 5829 5825 5821 5817 5812 5807 5802 5797 5791 5785 5779 5773 5767 5761 5755 5750 5744 5739 5734 5730 5726 5722 5719 5716 5714 5713 5712 5712 5712 5713 5714 5716 5718 5721 5724 5727 5731 5735
5852 5851 5849 5848 5846 5845 5843 5841 5835 5831 5828 5824 5820 5815 5811 5805 5800 5794 5788 5782 5775 5769 5762 5755 5749 5743 5737 5730 5725 5719 5714 5709 5705 5702 5699 5696 5694 5693 5693 5693 5694 5695 5697 5699 5702 5705 5709 5714 5718
5850 5848 5847 5846 5843 5841 5839 5838 5831 5827 5823 5819 5814 5809 5804 5798 5792 5786 5779 5772 5765 5758 5750 5743 5736 5729 5722 5716 5710 5704 5698 5693 5688 5684 5681 5678 5675 5674 5673 5673 5673 5675 5677 5679 5682 5685 5689 5694 5699